sat.trackr.live / text

‹ back to catalog

BEIDOU-3 M12 (C26)

NORAD 43602 · 2018-067A

PAYLOAD ACTIVE UNKNOWN

§ Identity

Operator
Country
PRC
Launch date
2018-08-24
Launch site
XICLF
Launch vehicle
Mass (kg)
RCS (m²)

Purposes: nav

External: N2YO · Heavens-Above · Gunter

§ Orbital elements

Epoch: 2026-09-09T05:04:33.300192Z

Period
773.25 min
Inclination
54.1791°
Eccentricity
0.0008619
Mean motion
1.86227477 rev/d
Perigee alt
21,504.4 km
Apogee alt
21,552.5 km
Semi-major
27,906.5 km
B*
0.0000e+0
RAAN
178.1923°
Arg perigee
35.4155°
Mean anomaly
324.6300°
Rev number
5,468

§ Raw data

BEIDOU-3 M12 (C26)1 43602U 18067A   26252.21149653 -.00000030  00000+0  00000+0 0  99972 43602  54.1791 178.1923 0008619  35.4155 324.6300  1.86227477 54687

JSON: /api/v1/satellites/43602 · /tle

For live sub-satellite position, see the globe view (requires WebGL).

§ Visibility from observer

Set your observer location to see the next 7 days of passes ≥ 10°. The values pass through the URL so the page stays shareable.

No JS? Fill the form by hand. The geolocation button needs JavaScript.